Time,TemperatureF,DewpointF,PressureIn,WindDirection,WindDirectionDegrees,WindSpeedMPH,WindSpeedGustMPH,Humidity,HourlyPrecipIn,Conditions,Clouds,dailyrainin,SoftwareType,DateUTC
2015-05-25 00:00:00,57.6,57.3,29.78,SSE,158,4.9,6.9,99,0.05,RA,,0.00,WeatherDisplay:10.37,2015-05-25 05:00:00,
2015-05-25 00:05:00,57.6,57.3,29.78,ESE,112,3.8,4.6,99,0.04,RA,,0.00,WeatherDisplay:10.37,2015-05-25 05:05:00,
2015-05-25 00:10:00,57.6,57.3,29.77,ESE,112,3.5,5.8,99,0.05,RA,,0.01,WeatherDisplay:10.37,2015-05-25 05:10:00,
2015-05-25 00:15:00,57.6,57.3,29.77,East,90,3.0,4.2,99,0.05,RA,,0.01,WeatherDisplay:10.37,2015-05-25 05:15:00,
2015-05-25 00:20:00,57.6,57.3,29.77,SSE,158,4.0,5.8,99,0.05,OVC,,0.01,WeatherDisplay:10.37,2015-05-25 05:20:00,
2015-05-25 00:25:00,57.6,57.3,29.77,ESE,112,5.4,5.8,99,0.06,RA,,0.02,WeatherDisplay:10.37,2015-05-25 05:25:00,
2015-05-25 00:30:00,57.6,57.3,29.77,SE,135,4.0,4.6,99,0.05,RA,,0.02,WeatherDisplay:10.37,2015-05-25 05:30:00,
2015-05-25 00:35:00,57.4,57.1,29.77,ESE,112,4.1,5.8,99,0.04,OVC,,0.02,WeatherDisplay:10.37,2015-05-25 05:35:00,
2015-05-25 00:40:00,57.4,57.1,29.77,ESE,112,3.4,4.6,99,0.04,OVC,,0.02,WeatherDisplay:10.37,2015-05-25 05:40:00,
2015-05-25 00:45:00,57.4,57.1,29.77,ESE,112,4.6,8.3,99,0.04,OVC,,0.03,WeatherDisplay:10.37,2015-05-25 05:45:00,
2015-05-25 00:50:00,57.4,57.1,29.76,East,90,4.1,5.8,99,0.04,RA,,0.04,WeatherDisplay:10.37,2015-05-25 05:50:00,
2015-05-25 01:00:00,57.4,57.1,29.75,East,90,3.9,4.7,99,0.05,RA,,0.05,WeatherDisplay:10.37,2015-05-25 06:00:00,
2015-05-25 01:05:00,57.4,57.1,29.75,ESE,112,2.3,2.3,99,0.06,-RA,,0.06,WeatherDisplay:10.37,2015-05-25 06:05:00,
2015-05-25 01:10:00,57.2,56.9,29.75,ESE,112,2.8,3.5,99,0.05,-RA,,0.06,WeatherDisplay:10.37,2015-05-25 06:10:00,
2015-05-25 01:15:00,57.2,56.9,29.75,SSE,158,3.2,3.5,99,0.06,-RA,,0.07,WeatherDisplay:10.37,2015-05-25 06:15:00,
2015-05-25 01:20:00,57.2,56.9,29.75,SE,135,4.5,4.6,99,0.07,-RA,,0.08,WeatherDisplay:10.37,2015-05-25 06:20:00,
2015-05-25 01:25:00,57.2,56.9,29.75,ESE,112,3.0,4.6,99,0.07,RA,,0.09,WeatherDisplay:10.37,2015-05-25 06:25:00,
2015-05-25 01:30:00,57.2,56.9,29.75,ESE,112,1.7,4.6,99,0.08,RA,,0.10,WeatherDisplay:10.37,2015-05-25 06:30:00,
2015-05-25 01:35:00,57.2,56.9,29.74,ESE,112,2.9,3.5,99,0.09,RA,,0.11,WeatherDisplay:10.37,2015-05-25 06:35:00,
2015-05-25 01:40:00,57.2,56.9,29.74,ESE,112,2.9,3.7,99,0.10,RA,,0.12,WeatherDisplay:10.37,2015-05-25 06:40:00,
2015-05-25 01:45:00,57.2,56.9,29.74,SE,135,4.2,4.7,99,0.10,RA,,0.12,WeatherDisplay:10.37,2015-05-25 06:45:00,
2015-05-25 01:50:00,57.2,56.9,29.74,SE,135,2.0,2.3,99,0.10,RA,,0.13,WeatherDisplay:10.37,2015-05-25 06:50:00,
2015-05-25 01:55:00,57.2,56.9,29.74,ESE,112,2.2,2.7,99,0.10,RA,,0.14,WeatherDisplay:10.37,2015-05-25 06:55:00,
2015-05-25 02:00:00,57.2,56.9,29.73,North,360,1.7,3.5,99,0.09,RA,,0.14,WeatherDisplay:10.37,2015-05-25 07:00:00,
2015-05-25 02:05:00,57.2,56.9,29.73,ESE,112,2.4,3.5,99,0.09,RA,,0.15,WeatherDisplay:10.37,2015-05-25 07:05:00,
2015-05-25 02:10:00,57.2,56.9,29.73,SE,135,2.5,2.7,99,0.09,RA,,0.15,WeatherDisplay:10.37,2015-05-25 07:10:00,
2015-05-25 02:15:00,57.2,56.9,29.72,SE,135,1.8,4.6,99,0.09,RA,,0.16,WeatherDisplay:10.37,2015-05-25 07:15:00,
2015-05-25 02:20:00,57.2,56.9,29.72,ESE,112,2.9,4.6,99,0.08,RA,,0.16,WeatherDisplay:10.37,2015-05-25 07:20:00,
2015-05-25 02:25:00,57.2,56.9,29.72,SE,135,3.9,4.6,99,0.07,OVC,,0.16,WeatherDisplay:10.37,2015-05-25 07:25:00,
2015-05-25 02:30:00,57.2,56.9,29.72,ESE,112,2.6,2.6,99,0.07,RA,,0.17,WeatherDisplay:10.37,2015-05-25 07:30:00,
2015-05-25 02:35:00,57.0,56.7,29.71,SE,135,2.0,3.7,99,0.07,RA,,0.18,WeatherDisplay:10.37,2015-05-25 07:35:00,
2015-05-25 02:40:00,57.0,56.7,29.71,East,90,2.8,3.5,99,0.06,RA,,0.18,WeatherDisplay:10.37,2015-05-25 07:40:00,
2015-05-25 02:45:00,57.0,56.7,29.71,NNE,22,0.8,3.5,99,0.07,RA,,0.19,WeatherDisplay:10.37,2015-05-25 07:45:00,
2015-05-25 02:50:00,57.0,56.7,29.71,South,180,0.6,2.3,99,0.06,RA,,0.19,WeatherDisplay:10.37,2015-05-25 07:50:00,
2015-05-25 02:55:00,57.0,56.7,29.71,ESE,112,1.7,3.5,99,0.06,RA,,0.20,WeatherDisplay:10.37,2015-05-25 07:55:00,
2015-05-25 03:00:00,57.0,56.7,29.71,SE,135,2.0,2.3,99,0.08,RA,,0.22,WeatherDisplay:10.37,2015-05-25 08:00:00,
2015-05-25 03:05:00,57.0,56.7,29.71,ESE,112,2.7,3.7,99,0.09,RA,,0.24,WeatherDisplay:10.37,2015-05-25 08:05:00,
2015-05-25 03:10:00,57.0,56.7,29.71,South,180,2.5,2.7,99,0.11,RA,,0.26,WeatherDisplay:10.37,2015-05-25 08:10:00,
2015-05-25 03:15:00,57.0,56.7,29.70,SE,135,1.5,2.3,99,0.12,-RA,,0.28,WeatherDisplay:10.37,2015-05-25 08:15:00,
2015-05-25 03:20:00,57.0,56.7,29.70,ENE,68,4.0,5.8,99,0.14,-RA,,0.30,WeatherDisplay:10.37,2015-05-25 08:20:00,
2015-05-25 03:25:00,57.0,56.7,29.70,ESE,112,1.9,2.7,99,0.14,-RA,,0.30,WeatherDisplay:10.37,2015-05-25 08:25:00,
2015-05-25 03:30:00,57.0,56.7,29.70,SSE,158,4.2,4.6,99,0.13,-RA,,0.30,WeatherDisplay:10.37,2015-05-25 08:30:00,
2015-05-25 03:35:00,57.0,56.7,29.70,ESE,112,2.3,3.5,99,0.15,-DZ,,0.33,WeatherDisplay:10.37,2015-05-25 08:35:00,
2015-05-25 03:40:00,57.0,56.7,29.70,SE,135,2.4,3.2,99,0.16,-DZ,,0.34,WeatherDisplay:10.37,2015-05-25 08:40:00,
2015-05-25 03:45:00,57.0,56.7,29.70,East,90,2.6,3.5,99,0.16,-DZ,,0.35,WeatherDisplay:10.37,2015-05-25 08:45:00,
2015-05-25 03:50:00,57.0,56.7,29.69,South,180,1.8,3.5,99,0.17,-DZ,,0.36,WeatherDisplay:10.37,2015-05-25 08:50:00,
2015-05-25 03:55:00,57.0,56.7,29.69,ESE,112,1.9,3.7,99,0.16, +DZ,,0.36,WeatherDisplay:10.37,2015-05-25 08:55:00,
2015-05-25 04:00:00,57.0,56.7,29.69,ESE,112,3.8,4.6,99,0.15, +DZ,,0.37,WeatherDisplay:10.37,2015-05-25 09:00:00,
2015-05-25 04:05:00,57.0,56.7,29.69,East,90,3.7,4.6,99,0.13, +DZ,,0.37,WeatherDisplay:10.37,2015-05-25 09:05:00,
2015-05-25 04:10:00,57.0,56.7,29.69,SSE,158,2.9,3.5,99,0.11, +DZ,,0.37,WeatherDisplay:10.37,2015-05-25 09:10:00,
2015-05-25 04:15:00,57.0,56.7,29.69,SE,135,3.6,4.6,99,0.09,OVC,,0.37,WeatherDisplay:10.37,2015-05-25 09:15:00,
2015-05-25 04:20:00,57.0,56.7,29.69,ESE,112,2.2,4.6,99,0.07,OVC,,0.37,WeatherDisplay:10.37,2015-05-25 09:20:00,
2015-05-25 04:25:00,57.0,56.7,29.69,SE,135,2.2,2.3,99,0.07,OVC,,0.37,WeatherDisplay:10.37,2015-05-25 09:25:00,
2015-05-25 04:30:00,57.0,56.7,29.69,East,90,0.9,2.2,99,0.07,OVC,,0.37,WeatherDisplay:10.37,2015-05-25 09:30:00,
2015-05-25 04:35:00,57.0,56.7,29.68,North,360,0.1,1.7,99,0.04,-DZ,,0.37,WeatherDisplay:10.37,2015-05-25 09:35:00,
2015-05-25 04:40:00,57.0,56.7,29.68,ESE,112,2.9,3.5,99,0.03,-DZ,,0.37,WeatherDisplay:10.37,2015-05-25 09:40:00,
2015-05-25 04:45:00,57.0,56.7,29.68,ESE,112,2.8,4.6,99,0.02,-DZ,,0.37,WeatherDisplay:10.37,2015-05-25 09:45:00,
2015-05-25 04:50:00,57.0,56.7,29.67,ESE,112,3.5,5.8,99,0.01,-DZ,,0.37,WeatherDisplay:10.37,2015-05-25 09:50:00,
2015-05-25 04:55:00,57.0,56.7,29.67,ESE,112,2.7,3.5,99,0.01,-DZ,,0.37,WeatherDisplay:10.37,2015-05-25 09:55:00,
2015-05-25 05:00:00,57.0,56.7,29.68,ESE,112,1.9,4.2,99,0.00,-DZ,,0.37,WeatherDisplay:10.37,2015-05-25 10:00:00,
2015-05-25 05:05:00,57.0,56.7,29.68,ESE,112,3.6,4.6,99,0.00,-DZ,,0.37,WeatherDisplay:10.37,2015-05-25 10:05:00,
2015-05-25 05:10:00,56.8,56.5,29.67,ESE,112,2.5,4.6,99,0.00,-DZ,,0.37,WeatherDisplay:10.37,2015-05-25 10:10:00,
2015-05-25 05:15:00,56.8,56.5,29.67,ESE,112,2.1,3.5,99,0.00,OVC,,0.37,WeatherDisplay:10.37,2015-05-25 10:15:00,
2015-05-25 05:20:00,56.8,56.5,29.67,ESE,112,3.5,4.2,99,0.00,OVC,,0.38,WeatherDisplay:10.37,2015-05-25 10:20:00,
2015-05-25 05:25:00,56.8,56.5,29.67,ESE,112,2.3,2.3,99,0.01,RA,,0.38,WeatherDisplay:10.37,2015-05-25 10:25:00,
2015-05-25 05:30:00,56.8,56.5,29.67,East,90,2.5,3.5,99,0.01,RA,,0.38,WeatherDisplay:10.37,2015-05-25 10:30:00,
2015-05-25 05:35:00,56.8,56.5,29.67,West,270,1.9,2.3,99,0.01,OVC,,0.38,WeatherDisplay:10.37,2015-05-25 10:35:00,
2015-05-25 05:40:00,56.8,56.5,29.67,ESE,112,3.9,5.8,99,0.01,OVC,,0.38,WeatherDisplay:10.37,2015-05-25 10:40:00,
2015-05-25 05:45:00,56.8,56.5,29.67,ESE,112,2.5,3.5,99,0.01,OVC,,0.38,WeatherDisplay:10.37,2015-05-25 10:45:00,
2015-05-25 05:50:00,56.8,56.5,29.67,SE,135,2.8,3.5,99,0.01,OVC,,0.38,WeatherDisplay:10.37,2015-05-25 10:50:00,
2015-05-25 05:55:00,56.8,56.5,29.67,ESE,112,2.1,2.3,99,0.01,OVC,,0.38,WeatherDisplay:10.37,2015-05-25 10:55:00,
2015-05-25 06:00:00,56.8,56.5,29.67,ESE,112,2.9,4.2,99,0.01,OVC,,0.38,WeatherDisplay:10.37,2015-05-25 11:00:00,
2015-05-25 06:05:00,56.8,56.5,29.67,ESE,112,2.3,2.7,99,0.01,OVC,,0.38,WeatherDisplay:10.37,2015-05-25 11:05:00,
2015-05-25 06:10:00,56.8,56.5,29.67,SSE,158,2.8,4.6,99,0.01,OVC,,0.38,WeatherDisplay:10.37,2015-05-25 11:10:00,
2015-05-25 06:15:00,56.8,56.5,29.67,ESE,112,2.7,3.5,99,0.01,OVC,,0.38,WeatherDisplay:10.37,2015-05-25 11:15:00,
2015-05-25 06:20:00,56.8,56.5,29.67,ESE,112,2.4,2.4,99,0.01,OVC,,0.38,WeatherDisplay:10.37,2015-05-25 11:20:00,
2015-05-25 06:25:00,56.8,56.5,29.67,ESE,112,3.2,3.5,99,0.00,OVC,,0.38,WeatherDisplay:10.37,2015-05-25 11:25:00,
2015-05-25 06:30:00,56.8,56.5,29.67,SE,135,2.4,2.7,99,0.00,OVC,,0.38,WeatherDisplay:10.37,2015-05-25 11:30:00,
2015-05-25 06:35:00,56.8,56.5,29.67,ENE,68,3.0,3.5,99,0.00,OVC,,0.38,WeatherDisplay:10.37,2015-05-25 11:35:00,
2015-05-25 06:40:00,56.8,56.5,29.67,SE,135,3.2,4.6,99,0.01,RA,,0.39,WeatherDisplay:10.37,2015-05-25 11:40:00,
2015-05-25 06:45:00,56.8,56.5,29.67,SSE,158,1.8,2.3,99,0.01,RA,,0.39,WeatherDisplay:10.37,2015-05-25 11:45:00,
2015-05-25 06:50:00,56.8,56.5,29.67,ESE,112,2.5,3.7,99,0.01,OVC,,0.39,WeatherDisplay:10.37,2015-05-25 11:50:00,
2015-05-25 06:55:00,56.8,56.5,29.67,SE,135,2.3,3.5,99,0.01,OVC,,0.39,WeatherDisplay:10.37,2015-05-25 11:55:00,
2015-05-25 07:00:00,56.8,56.5,29.67,ESE,112,2.8,3.5,99,0.01,OVC,,0.39,WeatherDisplay:10.37,2015-05-25 12:00:00,
2015-05-25 07:05:00,56.8,56.5,29.67,SE,135,2.3,3.5,99,0.01,OVC,,0.39,WeatherDisplay:10.37,2015-05-25 12:05:00,
2015-05-25 07:10:00,56.8,56.5,29.67,SE,135,2.3,2.3,99,0.01,OVC,,0.39,WeatherDisplay:10.37,2015-05-25 12:10:00,
2015-05-25 07:15:00,56.8,56.5,29.66,North,360,2.8,3.7,99,0.01,OVC,,0.39,WeatherDisplay:10.37,2015-05-25 12:15:00,
2015-05-25 07:20:00,56.8,56.5,29.66,ESE,112,4.3,5.8,99,0.01,OVC,,0.39,WeatherDisplay:10.37,2015-05-25 12:20:00,
2015-05-25 07:25:00,56.8,56.5,29.65,ESE,112,3.3,4.6,99,0.01,OVC,,0.39,WeatherDisplay:10.37,2015-05-25 12:25:00,
2015-05-25 07:30:00,57.0,56.7,29.65,NE,45,1.8,2.3,99,0.01,OVC,,0.39,WeatherDisplay:10.37,2015-05-25 12:30:00,
2015-05-25 07:35:00,57.0,56.7,29.66,ESE,112,1.0,2.7,99,0.01,OVC,,0.39,WeatherDisplay:10.37,2015-05-25 12:35:00,
2015-05-25 07:40:00,57.0,56.7,29.66,SE,135,1.8,2.3,99,0.00,OVC,,0.39,WeatherDisplay:10.37,2015-05-25 12:40:00,
2015-05-25 07:45:00,57.2,56.9,29.66,ESE,112,3.0,3.5,99,0.00,OVC,,0.39,WeatherDisplay:10.37,2015-05-25 12:45:00,
2015-05-25 07:50:00,57.2,56.9,29.65,South,180,1.2,2.3,99,0.00,OVC,,0.39,WeatherDisplay:10.37,2015-05-25 12:50:00,
2015-05-25 07:56:00,57.4,57.1,29.65,ESE,112,1.0,2.3,99,0.00,OVC,,0.39,WeatherDisplay:10.37,2015-05-25 12:56:00,
2015-05-25 08:01:00,57.4,57.1,29.66,SE,135,0.0,0.0,99,0.00,OVC,,0.39,WeatherDisplay:10.37,2015-05-25 13:01:00,
2015-05-25 08:06:00,57.4,57.1,29.66,ESE,112,2.2,2.3,99,0.00,OVC,,0.39,WeatherDisplay:10.37,2015-05-25 13:06:00,
2015-05-25 08:11:00,57.4,57.1,29.66,SE,135,1.3,1.3,99,0.00,OVC,,0.39,WeatherDisplay:10.37,2015-05-25 13:11:00,
2015-05-25 08:16:00,57.6,57.3,29.66,ESE,112,0.0,0.0,99,0.00,OVC,,0.39,WeatherDisplay:10.37,2015-05-25 13:16:00,
2015-05-25 08:21:00,57.7,57.4,29.66,East,90,0.6,1.7,99,0.00,OVC,,0.39,WeatherDisplay:10.37,2015-05-25 13:21:00,
2015-05-25 08:26:00,57.9,57.6,29.66,SSE,158,2.0,2.3,99,0.00,OVC,,0.39,WeatherDisplay:10.37,2015-05-25 13:26:00,
2015-05-25 08:31:00,57.9,57.6,29.66,North,360,0.0,0.0,99,0.00,OVC,,0.39,WeatherDisplay:10.37,2015-05-25 13:31:00,
2015-05-25 08:36:00,58.1,57.8,29.65,SE,135,0.0,0.0,99,0.00,OVC,,0.39,WeatherDisplay:10.37,2015-05-25 13:36:00,
2015-05-25 08:41:00,58.5,58.2,29.65,South,180,0.0,0.0,99,0.00,OVC,,0.39,WeatherDisplay:10.37,2015-05-25 13:41:00,
2015-05-25 08:46:00,58.6,58.3,29.66,ESE,112,0.3,1.1,99,0.00,OVC,,0.39,WeatherDisplay:10.37,2015-05-25 13:46:00,
2015-05-25 08:51:00,58.8,58.5,29.66,NE,45,1.1,3.2,99,0.00,OVC,,0.39,WeatherDisplay:10.37,2015-05-25 13:51:00,
2015-05-25 08:56:00,59.0,58.7,29.66,South,180,0.0,0.0,99,0.00,OVC,,0.39,WeatherDisplay:10.37,2015-05-25 13:56:00,
2015-05-25 09:01:00,59.2,58.9,29.66,SW,225,0.0,0.0,99,0.00,OVC,,0.39,WeatherDisplay:10.37,2015-05-25 14:01:00,
2015-05-25 09:06:00,59.4,59.1,29.66,SSE,158,0.3,1.2,99,0.00,OVC,,0.39,WeatherDisplay:10.37,2015-05-25 14:06:00,
2015-05-25 09:11:00,59.5,59.2,29.66,SSE,158,0.0,0.0,99,0.00,OVC,,0.39,WeatherDisplay:10.37,2015-05-25 14:11:00,
2015-05-25 09:16:00,59.5,59.2,29.66,South,180,0.0,0.0,99,0.00,OVC,,0.39,WeatherDisplay:10.37,2015-05-25 14:16:00,
2015-05-25 09:21:00,59.5,59.2,29.66,South,180,0.2,1.1,99,0.00,OVC,,0.39,WeatherDisplay:10.37,2015-05-25 14:21:00,
2015-05-25 09:26:00,59.7,59.4,29.67,South,180,1.6,2.3,99,0.00,OVC,,0.39,WeatherDisplay:10.37,2015-05-25 14:26:00,
2015-05-25 09:31:00,59.7,59.4,29.67,SSW,202,0.8,1.2,99,0.00,OVC,,0.39,WeatherDisplay:10.37,2015-05-25 14:31:00,
2015-05-25 09:36:00,59.7,59.4,29.67,SW,225,2.5,2.5,99,0.00,OVC,,0.39,WeatherDisplay:10.37,2015-05-25 14:36:00,
2015-05-25 09:41:00,59.9,59.6,29.67,SSW,202,0.5,2.3,99,0.00,OVC,,0.39,WeatherDisplay:10.37,2015-05-25 14:41:00,
2015-05-25 09:46:00,59.9,59.6,29.67,South,180,0.4,1.7,99,0.00,OVC,,0.39,WeatherDisplay:10.37,2015-05-25 14:46:00,
2015-05-25 09:51:00,60.1,59.8,29.67,SSW,202,0.5,1.2,99,0.00,OVC,,0.39,WeatherDisplay:10.37,2015-05-25 14:51:00,